Regional Weather Roundup
Issued by NWS Kansas City/Pleasant Hill, MO

Home | Current Version | Previous Version | Graphics & Text | Print | Product List | Glossary Off
Versions: 1 2 3 4 5 6 7 8 9 10 11 12 13 14 15 16 17 18 19 20 21 22 23 24 25 26 27 28

000
ASUS43 KEAX 250810
RWREAX

WEATHER ROUNDUP FOR EASTERN KANSAS AND NORTHWEST MISSOURI
NATIONAL WEATHER SERVICE KANSAS CITY/PLEASANT HILL MO
300 AM CDT WED APR 25 2018

KSZ040-057-103>105-MOZ028-029-037-043-250900-
...KANSAS CITY METROPOLITAN AREA...

CITY           SKY/WX    TMP DP  RH WIND       PRES   REMARKS
K.C. INTL      CLOUDY    55  44  66 N8        30.11R
K.C. DOWNTOWN  CLOUDY    59  45  59 N8        30.11R
LEES SUMMIT    CLOUDY    58  47  66 NW7       30.10R
OLATHE - IXD   CLOUDY    57  47  69 N12       30.10F
OLATHE - OJC   CLOUDY    57  46  66 N10       30.10F
LAWRENCE       CLOUDY    56  48  74 N10       30.11F

$$

MOZ001>008-011>017-020>025-030>033-038>040-044>046-053-054-250900-
...NORTHERN AND CENTRAL MISSOURI...

CITY           SKY/WX    TMP DP  RH WIND       PRES   REMARKS
ST. JOSEPH     CLOUDY    54  44  69 N14       30.14R
MOSBY          CLOUDY    59  45  58 N8        30.10S
WARRENSBURG    CLOUDY    55  45  67 N7        30.07S
WHITEMAN AFB   MOCLDY    56  46  68 N7        30.03S
CLINTON        CLOUDY    55  46  71 N6        30.07S
SEDALIA        MOCLDY    57  46  66 N7        30.06F
WARSAW         NOT AVBL
CHILLICOTHE      N/A     58  42  55 N12G24    30.10S
KIRKSVILLE     PTCLDY    55  42  61 N14       30.08S

$$

MOZ041-047>049-056>058-063>065-088>090-097-250900-
...EASTERN AND SOUTHERN MISSOURI...

CITY           SKY/WX    TMP DP  RH WIND       PRES   REMARKS
ST. LOUIS INTL CLEAR     51  41  68 SW3       29.99R
SPIRIT OF STL  CLEAR     46  42  86 SW6       29.98S
COLUMBIA       CLEAR     56  41  57 NW9       30.03F
JEFFERSON CITY CLEAR     51  41  68 NW5       30.03S
ROLLA          CLEAR     52  39  61 NW6       30.02F
OSAGE BEACH    CLEAR     54  43  66 CALM      30.05S
SPRINGFIELD    MOCLDY    53  40  61 NW5       30.05F
BRANSON        CLEAR     57  39  51 CALM      30.07S
JOPLIN         MOCLDY    54  46  74 NW5       30.08F
WEST PLAINS    CLEAR     50  45  83 CALM      30.03F

$$

IAZ060-094-KSZ022-034>040-054-083-096-NEZ052-066-093-250900-
...KANSAS...SOUTHEAST NEBRASKA AND IOWA...

CITY           SKY/WX    TMP DP  RH WIND       PRES   REMARKS
TOPEKA         CLOUDY    53  51  93 NW10      30.13F
MANHATTAN      LGT RAIN  50  48  93 VRB3      30.20R FOG
EMPORIA        CLOUDY    50  46  86 NW15      30.15F
CHANUTE        CLOUDY    54  49  83 N10       30.10F
WICHITA        LGT RAIN  47  46  97 NW18      30.22S
OMAHA          CLOUDY    47  44  90 N13       30.21R
LINCOLN        CLOUDY    45  43  93 N15       30.24F
FALLS CITY     CLOUDY    51  44  77 N9        30.17R
LAMONI         LGT RAIN  50  43  77 N16       30.13F
DES MOINES     CLOUDY    52  41  66 N12       30.17F

$$





USA.gov is the U.S. government's official web portal to all federal, state and local government web resources and services.